Weather Roundup
Issued by NWS

Home | Current Version | Previous Version | Graphics & Text | Print | Product List | Glossary Off
Versions: 1 2 3 4 5 6 7 8 9 10 11 12 13 14 15 16 17 18 19 20 21 22 23 24 25 26 27 28 29 30 31 32 33 34 35 36 37 38 39 40 41 42 43 44 45 46 47 48 49 50

000
NZUS93 KARX 060910
HRRWXR

CURRENT HOURLY OBSERVATIONS ACROSS
MUCH OF THE UPPER MISSISSIPPI VALLEY
NATIONAL WEATHER SERVICE LA CROSSE WI
300 AM CST FRI MAR 06 2015


...SOUTHEAST MINNESOTA...


CITY           SKY/WX    TMP DP  RH WIND       PRES   REMARKS
ROCHESTER      CLOUDY     5  -2  72 S18       30.20F WCI -15
ROCHESTER/MAYO CLOUDY     8  -3  63 S15G24    30.21F WCI -10
WINONA         CLEAR      9   1  72 CALM      30.31F
AUSTIN         CLEAR      5  -2  72 S14       30.21F WCI -12
ALBERT LEA     CLOUDY     9   1  72 S16G23    30.18F WCI  -9
DODGE CENTER   CLOUDY     7   0  72 S18       30.17F WCI -12
PRESTON        PTCLDY     2  -4  75 S20       30.24F WCI -19
OWATONNA       CLEAR      9   0  66 S20       30.16F WCI -11
FARIBAULT      CLEAR      9   0  66 S12G17    30.17F WCI  -6
$$

...ELSEWHERE IN MINNESOTA...


CITY           SKY/WX    TMP DP  RH WIND       PRES   REMARKS
MINNEAPOLIS    PTCLDY    12   1  61 S8        30.16F WCI   0
INTNL FALLS    CLOUDY    11   2  67 SW8       29.89F WCI  -1
DULUTH         CLEAR      8  -1  66 SW16G25   30.00F WCI -10
RED WING       CLOUDY     9   0  66 SE5       30.22F WCI   0
REDWOOD FALLS  CLEAR     16   7  67 S10       30.10F WCI   4
MANKATO        CLEAR     12   1  62 S9        30.15F WCI   0
FAIRMONT       CLEAR     12   3  67 S14       30.13F WCI  -3
$$

...SOUTHWEST WISCONSIN...


CITY           SKY/WX    TMP DP  RH WIND       PRES   REMARKS
LA CROSSE      CLEAR      4  -4  69 S12       30.33F WCI -12
PRAIRIE DU CHI PTCLDY    -1  -8  74 CALM      30.38F
BOSCOBEL       PTCLDY    -8 -14  74 CALM      30.39F
LONE ROCK      MOCLDY    -3  -9  75 NE3       30.39F
PLATTEVILLE    PTCLDY     1  -6  74 SE10      30.37F WCI -16
FORT MC COY    PTCLDY    -4  -8  81 CALM      30.32F
CAMP DOUGLAS   PTCLDY     2  -4  77 S5        30.31F WCI  -7
VIROQUA        FAIR       1  -5  76 S9        30.28F WCI -14
WIS DELLS      MOCLDY    -1  -7  74 CALM      30.34F
$$

...ELSEWHERE IN WISCONSIN...


CITY           SKY/WX    TMP DP  RH WIND       PRES   REMARKS
MILWAUKEE      PTCLDY     2  -8  63 SW7       30.43F WCI -11
MADISON        MOCLDY     3  -6  66 S5        30.38F WCI  -6
GREEN BAY      PTCLDY     2  -6  69 S9        30.35F WCI -13
EAU CLAIRE     PTCLDY     2  -5  72 S8        30.23F WCI -12
BLACK RVR FLS  FAIR     -11 -17  74 S3        30.31F
MEDFORD        PTCLDY    -3  -8  79 S7        30.20F WCI -17
WAUSAU         PTCLDY    -1  -7  75 SW3       30.25F
WIS RAPIDS     PTCLDY    -4 -10  75 S3        30.31F
MARSHFIELD     PTCLDY    -4  -9  79 S7        30.25F WCI -18
RICE LAKE      CLOUDY     2  -3  77 SE7       30.20F WCI -10
$$

...NORTHEAST IOWA...


CITY           SKY/WX    TMP DP  RH WIND       PRES   REMARKS
DECORAH        PTCLDY     5  -4  66 S10       30.29F WCI -10
MASON CITY     CLOUDY     4  -2  76 S13       30.23F WCI -13
CHARLES CITY   CLEAR      3  -4  72 S14       30.28F WCI -15
OELWEIN        PTCLDY     1  -6  71 S13       30.33F WCI -16
$$

...ELSEWHERE IN IOWA...


CITY           SKY/WX    TMP DP  RH WIND       PRES   REMARKS
DES MOINES     MOCLDY    20   8  60 S13       30.30F WCI   7
IOWA CITY      PTCLDY     3  -2  79 SE5       30.43F WCI  -6
FORT DODGE     CLOUDY    18   5  57 S10G21    30.21F WCI   6
$$

...NORTHERN ILLINOIS...


CITY           SKY/WX    TMP DP  RH WIND       PRES   REMARKS
CHICAGO-OHARE  PTCLDY     4  -3  73 SW5       30.47F WCI  -5
CHICAGO-MIDWAY CLEAR      7  -2  66 S5        30.49F WCI  -2
MOLINE         PTCLDY     5  -3  69 S5        30.46F WCI  -4
ROCKFORD       MOCLDY    -4  -9  79 S5        30.46F WCI -15
PEORIA         PTCLDY     5  -1  76 S5        30.52F WCI  -4
$$

NOTE: "FAIR" INDICATES FEW OR NO CLOUDS BELOW 12,000 FEET WITH NO
SIGNIFICANT WEATHER AND/OR OBSTRUCTIONS TO VISIBILITY. WIND
SPEEDS ARE IN MILES-PER-HOUR.



USA.gov is the U.S. government's official web portal to all federal, state and local government web resources and services.